AVA9829 SKBG-SKRG

Flight info

Callsign AVA9829
Flight time N/A
Altitude 22000
Route EJA2F EJA W26 DIPRA DIPRA3B
Aircraft A320/M-SDE3FGHIRWY/LB1

Departure

Time 2026-04-25 21:05
Airport Palonegro Airport (SKBG)

Arrival

Time N/A
Airport Jose Maria Córdova International Airport (SKRG)
Time Latitude Longitude Altitude Speed Heading
2026-04-25 20:45 7.12716 -73.18150 3897 ft 0 kts 12°
2026-04-25 20:58 7.12714 -73.18151 3900 ft 3 kts 13°
2026-04-25 20:58 7.12688 -73.18157 3898 ft 4 kts
2026-04-25 20:59 7.12668 -73.18157 3899 ft 4 kts 299°
2026-04-25 20:59 7.12666 -73.18154 3896 ft 0 kts 281°
2026-04-25 21:01 7.12674 -73.18196 3900 ft 12 kts 280°
2026-04-25 21:01 7.12684 -73.18279 3898 ft 8 kts 265°
2026-04-25 21:01 7.12676 -73.18312 3901 ft 1 kts 263°
2026-04-25 21:02 7.12676 -73.18316 3903 ft 4 kts 271°
2026-04-25 21:02 7.12668 -73.18370 3898 ft 10 kts 212°
2026-04-25 21:02 7.12565 -73.18340 3896 ft 21 kts 159°
2026-04-25 21:02 7.12395 -73.18275 3892 ft 31 kts 159°
2026-04-25 21:03 7.12163 -73.18183 3884 ft 40 kts 159°
2026-04-25 21:03 7.11889 -73.18084 3868 ft 29 kts 165°
2026-04-25 21:03 7.11777 -73.18079 3860 ft 20 kts 178°
2026-04-25 21:03 7.11723 -73.18128 3863 ft 10 kts 312°
2026-04-25 21:04 7.11746 -73.18137 3861 ft 0 kts 340°
2026-04-25 21:04 7.11750 -73.18139 3861 ft 6 kts 340°
2026-04-25 21:04 7.11971 -73.18220 3875 ft 75 kts 339°
2026-04-25 21:04 7.12715 -73.18499 3903 ft 150 kts 340°
2026-04-25 21:05 7.13849 -73.18900 4263 ft 182 kts 341°
2026-04-25 21:05 7.15039 -73.19340 5260 ft 183 kts 339°
2026-04-25 21:05 7.16213 -73.19805 6188 ft 183 kts 339°
2026-04-25 21:05 7.17465 -73.20280 6399 ft 204 kts 340°
2026-04-25 21:06 7.18857 -73.20801 6664 ft 219 kts 340°
2026-04-25 21:06 7.20347 -73.21365 6921 ft 242 kts 339°
2026-04-25 21:06 7.21999 -73.21992 7269 ft 266 kts 339°
2026-04-25 21:06 7.23130 -73.22529 7593 ft 276 kts 325°
2026-04-25 21:07 7.24542 -73.24670 8523 ft 286 kts 281°
2026-04-25 21:07 7.24436 -73.26678 8899 ft 292 kts 251°
2026-04-25 21:07 7.23318 -73.28362 8986 ft 293 kts 222°
2026-04-25 21:07 7.21793 -73.29724 8987 ft 293 kts 230°
2026-04-25 21:08 7.20929 -73.31535 8990 ft 291 kts 262°
2026-04-25 21:08 7.21162 -73.33529 8985 ft 289 kts 295°
2026-04-25 21:08 7.22283 -73.35229 9333 ft 294 kts 306°
2026-04-25 21:08 7.23133 -73.37092 10180 ft 298 kts 279°
2026-04-25 21:09 7.22011 -73.41269 10890 ft 336 kts 239°
2026-04-25 21:09 7.20722 -73.43262 11512 ft 343 kts 236°
2026-04-25 21:09 7.19395 -73.45272 12211 ft 346 kts 238°
2026-04-25 21:10 7.18139 -73.47356 12927 ft 350 kts 240°
2026-04-25 21:10 7.16977 -73.49524 13623 ft 353 kts 243°
2026-04-25 21:10 7.15892 -73.51759 14229 ft 357 kts 245°
2026-04-25 21:10 7.14852 -73.54044 14834 ft 361 kts 246°
2026-04-25 21:11 7.13829 -73.56361 15449 ft 364 kts 246°
2026-04-25 21:11 7.12813 -73.58672 16034 ft 367 kts 246°
2026-04-25 21:11 7.11767 -73.61033 16624 ft 371 kts 245°
2026-04-25 21:11 7.10698 -73.63411 17217 ft 374 kts 245°
2026-04-25 21:12 7.09611 -73.65799 17801 ft 378 kts 245°
2026-04-25 21:12 7.08507 -73.68210 18348 ft 381 kts 245°
2026-04-25 21:12 7.07393 -73.70641 18856 ft 384 kts 245°
2026-04-25 21:12 7.06636 -73.72296 19200 ft 386 kts 245°
2026-04-25 21:13 7.05144 -73.75559 19875 ft 390 kts 245°
2026-04-25 21:13 7.04009 -73.78047 20383 ft 392 kts 245°
2026-04-25 21:13 7.02862 -73.80550 20861 ft 395 kts 245°
2026-04-25 21:13 7.01619 -73.83026 21370 ft 398 kts 242°
2026-04-25 21:14 7.00275 -73.85474 21727 ft 401 kts 240°
2026-04-25 21:14 6.98880 -73.87901 21821 ft 396 kts 240°
2026-04-25 21:14 6.97513 -73.90246 21841 ft 385 kts 240°
2026-04-25 21:14 6.96167 -73.92569 21845 ft 383 kts 240°
2026-04-25 21:15 6.94840 -73.94890 21849 ft 382 kts 240°
2026-04-25 21:15 6.93529 -73.97209 21767 ft 378 kts 240°
2026-04-25 21:15 6.92250 -73.99489 21524 ft 370 kts 241°
2026-04-25 21:15 6.90998 -74.01732 21287 ft 366 kts 241°
2026-04-25 21:16 6.89760 -74.03956 21051 ft 363 kts 241°
2026-04-25 21:16 6.88528 -74.06167 20815 ft 361 kts 241°
2026-04-25 21:16 6.87300 -74.08368 20595 ft 360 kts 241°
2026-04-25 21:16 6.86078 -74.10555 20356 ft 358 kts 241°
2026-04-25 21:17 6.84859 -74.12734 20122 ft 357 kts 241°
2026-04-25 21:17 6.83643 -74.14907 19890 ft 356 kts 241°
2026-04-25 21:17 6.82428 -74.17078 19658 ft 354 kts 240°
2026-04-25 21:17 6.81222 -74.19230 19429 ft 353 kts 241°
2026-04-25 21:18 6.80018 -74.21375 19199 ft 351 kts 240°
2026-04-25 21:18 6.78819 -74.23515 18984 ft 351 kts 240°
2026-04-25 21:18 6.77625 -74.25647 18770 ft 349 kts 240°
2026-04-25 21:18 6.76436 -74.27769 18546 ft 347 kts 240°
2026-04-25 21:19 6.75250 -74.29884 18325 ft 346 kts 240°
2026-04-25 21:19 6.74072 -74.31988 18094 ft 346 kts 240°
2026-04-25 21:19 6.72892 -74.34094 17834 ft 344 kts 240°
2026-04-25 21:19 6.71721 -74.36183 17590 ft 342 kts 240°
2026-04-25 21:20 6.70556 -74.38262 17335 ft 340 kts 241°
2026-04-25 21:20 6.69786 -74.39637 17175 ft 340 kts 241°
2026-04-25 21:20 6.68238 -74.42396 16838 ft 338 kts 241°
2026-04-25 21:20 6.67084 -74.44452 16596 ft 336 kts 241°
2026-04-25 21:21 6.65939 -74.46493 16354 ft 335 kts 241°
2026-04-25 21:21 6.64794 -74.48533 16116 ft 334 kts 241°
2026-04-25 21:21 6.63652 -74.50565 15890 ft 333 kts 241°
2026-04-25 21:21 6.62517 -74.52588 15646 ft 332 kts 241°
2026-04-25 21:22 6.61443 -74.54602 15418 ft 331 kts 246°
2026-04-25 21:22 6.60627 -74.56757 15184 ft 329 kts 251°
2026-04-25 21:22 6.59873 -74.58927 14955 ft 328 kts 251°
2026-04-25 21:22 6.59122 -74.61083 14730 ft 326 kts 251°
2026-04-25 21:23 6.58374 -74.63233 14496 ft 325 kts 251°
2026-04-25 21:23 6.57625 -74.65379 14286 ft 325 kts 251°
2026-04-25 21:23 6.56876 -74.67515 14054 ft 323 kts 251°
2026-04-25 21:23 6.56128 -74.69642 13836 ft 322 kts 251°
2026-04-25 21:24 6.55382 -74.71759 13596 ft 321 kts 251°
2026-04-25 21:24 6.54640 -74.73870 13339 ft 320 kts 251°
2026-04-25 21:24 6.53901 -74.75977 13086 ft 319 kts 251°
2026-04-25 21:24 6.53166 -74.78074 12836 ft 317 kts 251°
2026-04-25 21:25 6.52437 -74.80157 12720 ft 315 kts 251°
2026-04-25 21:25 6.51711 -74.82231 12733 ft 315 kts 251°
2026-04-25 21:25 6.50981 -74.84314 12735 ft 316 kts 251°
2026-04-25 21:25 6.50279 -74.86316 12735 ft 316 kts 251°
2026-04-25 21:26 6.49547 -74.88404 12735 ft 316 kts 251°
2026-04-25 21:26 6.48816 -74.90484 12735 ft 316 kts 251°
2026-04-25 21:26 6.48083 -74.92567 12734 ft 316 kts 251°
2026-04-25 21:26 6.47350 -74.94652 12735 ft 316 kts 251°
2026-04-25 21:27 6.46618 -74.96737 12737 ft 316 kts 251°
2026-04-25 21:27 6.45888 -74.98823 12740 ft 316 kts 251°
2026-04-25 21:27 6.45161 -75.00906 12740 ft 316 kts 251°
2026-04-25 21:27 6.44430 -75.02990 12740 ft 316 kts 251°
2026-04-25 21:28 6.43697 -75.05077 12744 ft 317 kts 251°
2026-04-25 21:28 6.42964 -75.07161 12769 ft 316 kts 251°
2026-04-25 21:28 6.42234 -75.09231 12770 ft 313 kts 251°
2026-04-25 21:28 6.41495 -75.11292 12769 ft 314 kts 248°
2026-04-25 21:29 6.40483 -75.13226 12773 ft 314 kts 236°
2026-04-25 21:29 6.39101 -75.14933 12772 ft 315 kts 225°
2026-04-25 21:29 6.37412 -75.16341 12772 ft 316 kts 215°
2026-04-25 21:29 6.35484 -75.17402 12774 ft 317 kts 204°
2026-04-25 21:30 6.33382 -75.18090 12779 ft 319 kts 196°
2026-04-25 21:30 6.31240 -75.18670 12854 ft 319 kts 196°
2026-04-25 21:30 6.29099 -75.19251 12866 ft 319 kts 197°
2026-04-25 21:30 6.27680 -75.19638 12873 ft 319 kts 197°
2026-04-25 21:31 6.24820 -75.20420 12892 ft 319 kts 197°
2026-04-25 21:31 6.22683 -75.21003 12900 ft 318 kts 197°
2026-04-25 21:31 6.20550 -75.21583 12920 ft 317 kts 195°
2026-04-25 21:31 6.18420 -75.22161 12924 ft 317 kts 197°
2026-04-25 21:32 6.16291 -75.22738 12933 ft 317 kts 197°
2026-04-25 21:32 6.14162 -75.23317 12935 ft 317 kts 196°
2026-04-25 21:32 6.12036 -75.23899 12937 ft 317 kts 197°
2026-04-25 21:32 6.09904 -75.24483 12937 ft 317 kts 197°
2026-04-25 21:33 6.07776 -75.25062 12933 ft 317 kts 197°
2026-04-25 21:33 6.05649 -75.25642 12930 ft 317 kts 196°
2026-04-25 21:33 6.03519 -75.26221 12923 ft 317 kts 195°
2026-04-25 21:33 6.01384 -75.26802 12916 ft 317 kts 196°
2026-04-25 21:34 5.99259 -75.27379 12908 ft 317 kts 197°
2026-04-25 21:34 5.97132 -75.27958 12900 ft 317 kts 197°
2026-04-25 21:34 5.95013 -75.28535 12886 ft 310 kts 196°
2026-04-25 21:34 5.92977 -75.29089 12876 ft 296 kts 197°
2026-04-25 21:35 5.91036 -75.29621 12870 ft 282 kts 199°
2026-04-25 21:35 5.89343 -75.30473 12863 ft 266 kts 221°
2026-04-25 21:35 5.88171 -75.31865 12854 ft 261 kts 243°
2026-04-25 21:35 5.87624 -75.33586 12644 ft 259 kts 265°
2026-04-25 21:36 5.87596 -75.35391 12406 ft 258 kts 270°
2026-04-25 21:36 5.87593 -75.37195 12124 ft 258 kts 269°
2026-04-25 21:36 5.87613 -75.38993 11874 ft 254 kts 277°
2026-04-25 21:36 5.88194 -75.40612 11768 ft 244 kts 304°
2026-04-25 21:37 5.89405 -75.41723 11653 ft 238 kts 331°
2026-04-25 21:37 5.89911 -75.41951 11602 ft 236 kts 340°
2026-04-25 21:37 5.92587 -75.42168 11142 ft 228 kts 359°
2026-04-25 21:37 5.94134 -75.42169 10881 ft 222 kts 357°
2026-04-25 21:38 5.95637 -75.42176 10628 ft 208 kts 359°
2026-04-25 21:38 5.97025 -75.42185 10411 ft 189 kts 357°
2026-04-25 21:38 5.98295 -75.42208 10147 ft 177 kts 356°
2026-04-25 21:38 5.99514 -75.42214 9857 ft 168 kts 358°
2026-04-25 21:39 6.00657 -75.42224 9625 ft 162 kts 358°
2026-04-25 21:39 6.01775 -75.42225 9566 ft 161 kts 359°
2026-04-25 21:39 6.02880 -75.42227 9351 ft 160 kts 358°
2026-04-25 21:39 6.04001 -75.42229 9071 ft 158 kts 358°
2026-04-25 21:40 6.05084 -75.42245 8893 ft 158 kts 358°
2026-04-25 21:40 6.06178 -75.42248 8714 ft 157 kts 358°
2026-04-25 21:40 6.07270 -75.42257 8501 ft 157 kts 359°
2026-04-25 21:40 6.08006 -75.42259 8366 ft 155 kts 358°